UAL3107 KDSM-KMSP

Flight info

Callsign UAL3107
Flight time 0h 42m
Altitude 30000
Route IWILD ROKKK NITZR4
Aircraft B737/M-SDE2E3FGHIRWXY/LB1

Departure

Time 2026-04-24 01:23
Airport Des Moines International Airport (KDSM)

Arrival

Time 2026-04-24 02:05
Airport Minneapolis–Saint Paul International Airport / Wold–Chamberlain Field (KMSP)
Time Latitude Longitude Altitude Speed Heading
2026-04-24 00:37 41.53159 -93.65020 926 ft 0 kts
2026-04-24 01:10 41.53146 -93.65023 930 ft 4 kts
2026-04-24 01:11 41.53121 -93.65019 927 ft 4 kts 326°
2026-04-24 01:11 41.53108 -93.64995 928 ft 4 kts 264°
2026-04-24 01:11 41.53114 -93.64974 930 ft 1 kts 225°
2026-04-24 01:11 41.53116 -93.64971 929 ft 1 kts 225°
2026-04-24 01:16 41.53107 -93.64984 930 ft 5 kts 230°
2026-04-24 01:16 41.53107 -93.64986 929 ft 0 kts 232°
2026-04-24 01:17 41.53106 -93.64986 929 ft 0 kts 233°
2026-04-24 01:17 41.53107 -93.64986 929 ft 0 kts 243°
2026-04-24 01:17 41.53103 -93.64996 880 ft 5 kts 242°
2026-04-24 01:17 41.53091 -93.65048 928 ft 9 kts 268°
2026-04-24 01:18 41.53125 -93.65136 926 ft 14 kts 311°
2026-04-24 01:18 41.53190 -93.65231 926 ft 14 kts 314°
2026-04-24 01:18 41.53282 -93.65361 926 ft 21 kts 313°
2026-04-24 01:18 41.53417 -93.65554 926 ft 34 kts 312°
2026-04-24 01:19 41.53569 -93.65783 926 ft 32 kts 313°
2026-04-24 01:19 41.53710 -93.65989 927 ft 29 kts 312°
2026-04-24 01:19 41.53842 -93.66182 926 ft 27 kts 311°
2026-04-24 01:19 41.53964 -93.66363 926 ft 25 kts 313°
2026-04-24 01:20 41.54080 -93.66530 926 ft 23 kts 311°
2026-04-24 01:20 41.54188 -93.66686 926 ft 23 kts 313°
2026-04-24 01:20 41.54292 -93.66838 927 ft 22 kts 313°
2026-04-24 01:20 41.54400 -93.66994 926 ft 23 kts 313°
2026-04-24 01:21 41.54507 -93.67154 927 ft 27 kts 313°
2026-04-24 01:21 41.54612 -93.67329 927 ft 18 kts 279°
2026-04-24 01:21 41.54563 -93.67412 929 ft 6 kts 189°
2026-04-24 01:21 41.54524 -93.67388 931 ft 0 kts 139°
2026-04-24 01:22 41.54517 -93.67379 930 ft 10 kts 135°
2026-04-24 01:22 41.54283 -93.67037 926 ft 100 kts 133°
2026-04-24 01:22 41.53607 -93.66055 932 ft 184 kts 131°
2026-04-24 01:23 41.52653 -93.64606 1462 ft 222 kts 130°
2026-04-24 01:23 41.51606 -93.63016 2326 ft 216 kts 140°
2026-04-24 01:23 41.50689 -93.61773 4088 ft 164 kts 143°
2026-04-24 01:23 41.50104 -93.60494 4938 ft 182 kts 111°
2026-04-24 01:24 41.50261 -93.58418 3463 ft 281 kts 66°
2026-04-24 01:24 41.51549 -93.56130 3227 ft 286 kts 53°
2026-04-24 01:24 41.52847 -93.54761 5110 ft 218 kts
2026-04-24 01:24 41.54249 -93.54897 5769 ft 201 kts 322°
2026-04-24 01:25 41.55158 -93.56218 5967 ft 194 kts 283°
2026-04-24 01:25 41.55628 -93.57960 6086 ft 206 kts 282°
2026-04-24 01:25 41.56144 -93.59807 6222 ft 221 kts 283°
2026-04-24 01:25 41.56736 -93.61774 6509 ft 235 kts 285°
2026-04-24 01:26 41.57404 -93.63794 6930 ft 242 kts 287°
2026-04-24 01:26 41.58160 -93.65831 7512 ft 246 kts 291°
2026-04-24 01:26 41.59083 -93.67779 8213 ft 251 kts 298°
2026-04-24 01:26 41.60185 -93.69636 9012 ft 257 kts 304°
2026-04-24 01:27 41.61492 -93.71298 9938 ft 269 kts 322°
2026-04-24 01:27 41.63313 -93.72167 10662 ft 286 kts 338°
2026-04-24 01:27 41.65268 -93.72839 11361 ft 296 kts 339°
2026-04-24 01:27 41.67354 -93.73544 11674 ft 323 kts 340°
2026-04-24 01:28 41.69586 -93.74300 12003 ft 345 kts 340°
2026-04-24 01:28 41.71983 -93.75115 12629 ft 355 kts 340°
2026-04-24 01:28 41.74364 -93.75927 13426 ft 361 kts 340°
2026-04-24 01:28 41.76811 -93.76766 14218 ft 366 kts 340°
2026-04-24 01:29 41.79297 -93.77622 15002 ft 371 kts 340°
2026-04-24 01:29 41.81812 -93.78494 15848 ft 375 kts 340°
2026-04-24 01:29 41.84350 -93.79377 16699 ft 379 kts 340°
2026-04-24 01:29 41.86919 -93.80275 17503 ft 385 kts 340°
2026-04-24 01:30 41.89526 -93.81189 18280 ft 389 kts 340°
2026-04-24 01:30 41.92158 -93.82111 19000 ft 393 kts 340°
2026-04-24 01:30 41.94823 -93.83047 19722 ft 398 kts 341°
2026-04-24 01:30 41.97519 -93.83995 20412 ft 403 kts 341°
2026-04-24 01:31 42.00242 -93.84953 21073 ft 408 kts 341°
2026-04-24 01:31 42.03008 -93.85927 21713 ft 413 kts 341°
2026-04-24 01:31 42.05803 -93.86912 22360 ft 418 kts 341°
2026-04-24 01:31 42.08635 -93.87911 22993 ft 423 kts 341°
2026-04-24 01:32 42.11492 -93.88920 23562 ft 427 kts 341°
2026-04-24 01:32 42.14385 -93.89942 24105 ft 432 kts 341°
2026-04-24 01:32 42.17302 -93.90973 24603 ft 436 kts 341°
2026-04-24 01:32 42.20248 -93.92016 25114 ft 439 kts 341°
2026-04-24 01:33 42.23216 -93.93067 25663 ft 443 kts 341°
2026-04-24 01:33 42.26207 -93.94128 26182 ft 446 kts 341°
2026-04-24 01:33 42.29225 -93.95200 26693 ft 450 kts 341°
2026-04-24 01:33 42.32260 -93.96279 27195 ft 454 kts 341°
2026-04-24 01:34 42.35331 -93.97372 27673 ft 458 kts 341°
2026-04-24 01:34 42.38428 -93.98476 28106 ft 462 kts 341°
2026-04-24 01:34 42.41540 -93.99585 28718 ft 462 kts 341°
2026-04-24 01:34 42.44636 -94.00687 29452 ft 459 kts 341°
2026-04-24 01:35 42.47715 -94.01786 30074 ft 457 kts 341°
2026-04-24 01:35 42.50792 -94.02887 30582 ft 457 kts 341°
2026-04-24 01:35 42.53861 -94.03986 31100 ft 456 kts 341°
2026-04-24 01:35 42.56927 -94.05083 31635 ft 456 kts 342°
2026-04-24 01:36 42.60063 -94.05831 32121 ft 460 kts 353°
2026-04-24 01:36 42.63264 -94.05857 32628 ft 462 kts
2026-04-24 01:36 42.66439 -94.05237 32604 ft 470 kts 14°
2026-04-24 01:37 42.72698 -94.02869 32609 ft 462 kts 16°
2026-04-24 01:37 42.78858 -94.00439 32634 ft 461 kts 16°
2026-04-24 01:38 42.85046 -93.98056 32630 ft 464 kts 15°
2026-04-24 01:38 42.91272 -93.95700 32605 ft 465 kts 15°
2026-04-24 01:39 42.97534 -93.93339 32014 ft 468 kts 15°
2026-04-24 01:39 43.00673 -93.92154 31399 ft 469 kts 15°
2026-04-24 01:39 43.03848 -93.90953 30578 ft 477 kts 15°
2026-04-24 01:39 43.07052 -93.89739 29959 ft 478 kts 15°
2026-04-24 01:40 43.10246 -93.88528 29469 ft 475 kts 15°
2026-04-24 01:40 43.13422 -93.87322 28930 ft 472 kts 15°
2026-04-24 01:40 43.16576 -93.86123 28441 ft 468 kts 15°
2026-04-24 01:40 43.19705 -93.84932 27941 ft 465 kts 15°
2026-04-24 01:41 43.22815 -93.83746 27452 ft 461 kts 15°
2026-04-24 01:41 43.25854 -93.82587 26987 ft 458 kts 15°
2026-04-24 01:41 43.28907 -93.81421 26514 ft 455 kts 15°
2026-04-24 01:41 43.31947 -93.80259 26045 ft 451 kts 15°
2026-04-24 01:42 43.34954 -93.79109 25588 ft 447 kts 15°
2026-04-24 01:42 43.37940 -93.77965 25160 ft 444 kts 15°
2026-04-24 01:42 43.40905 -93.76828 24688 ft 442 kts 15°
2026-04-24 01:42 43.43859 -93.75695 24227 ft 439 kts 15°
2026-04-24 01:43 43.46797 -93.74566 23812 ft 437 kts 15°
2026-04-24 01:43 43.49689 -93.73454 23647 ft 425 kts 15°
2026-04-24 01:43 43.52496 -93.72373 23588 ft 412 kts 15°
2026-04-24 01:43 43.55207 -93.71329 23570 ft 398 kts 15°
2026-04-24 01:44 43.57832 -93.70316 23569 ft 385 kts 15°
2026-04-24 01:44 43.60376 -93.69334 23527 ft 374 kts 15°
2026-04-24 01:44 43.62878 -93.68367 23171 ft 375 kts 15°
2026-04-24 01:44 43.65407 -93.67389 22714 ft 379 kts 15°
2026-04-24 01:45 43.67981 -93.66393 22258 ft 389 kts 15°
2026-04-24 01:45 43.70614 -93.65374 21805 ft 395 kts 15°
2026-04-24 01:45 43.73264 -93.64346 21337 ft 394 kts 14°
2026-04-24 01:45 43.75884 -93.63328 20822 ft 389 kts 14°
2026-04-24 01:46 43.78473 -93.62321 20327 ft 384 kts 14°
2026-04-24 01:46 43.81035 -93.61325 19838 ft 380 kts 13°
2026-04-24 01:46 43.83564 -93.60340 19355 ft 376 kts 13°
2026-04-24 01:46 43.86067 -93.59365 18883 ft 372 kts 13°
2026-04-24 01:47 43.88549 -93.58396 18422 ft 368 kts 13°
2026-04-24 01:47 43.91001 -93.57438 17969 ft 365 kts 13°
2026-04-24 01:47 43.93402 -93.56502 17452 ft 362 kts 13°
2026-04-24 01:47 43.95848 -93.55547 16927 ft 358 kts 13°
2026-04-24 01:48 43.98203 -93.54627 16430 ft 355 kts 13°
2026-04-24 01:48 44.00576 -93.53698 15923 ft 353 kts 13°
2026-04-24 01:48 44.02931 -93.52776 15426 ft 350 kts 13°
2026-04-24 01:48 44.05251 -93.51866 14921 ft 344 kts 13°
2026-04-24 01:49 44.07534 -93.50970 14448 ft 338 kts 13°
2026-04-24 01:49 44.09779 -93.50088 13964 ft 332 kts 14°
2026-04-24 01:49 44.11273 -93.49501 13648 ft 329 kts 14°
2026-04-24 01:49 44.13452 -93.48645 13151 ft 324 kts 14°
2026-04-24 01:50 44.15605 -93.47797 12638 ft 319 kts 14°
2026-04-24 01:50 44.17722 -93.46964 12129 ft 314 kts 14°
2026-04-24 01:50 44.19791 -93.46054 11623 ft 310 kts 19°
2026-04-24 01:50 44.21759 -93.44953 11329 ft 299 kts 20°
2026-04-24 01:51 44.23640 -93.43874 11077 ft 294 kts 20°
2026-04-24 01:51 44.25537 -93.42804 10840 ft 297 kts 19°
2026-04-24 01:51 44.27465 -93.41729 10601 ft 300 kts 19°
2026-04-24 01:51 44.29398 -93.40653 10361 ft 298 kts 19°
2026-04-24 01:52 44.31310 -93.39584 10114 ft 293 kts 19°
2026-04-24 01:52 44.33194 -93.38530 9871 ft 290 kts 19°
2026-04-24 01:52 44.35057 -93.37488 9636 ft 287 kts 19°
2026-04-24 01:52 44.36896 -93.36438 9390 ft 285 kts 21°
2026-04-24 01:53 44.38680 -93.35219 9213 ft 287 kts 24°
2026-04-24 01:53 44.40465 -93.33914 9176 ft 293 kts 25°
2026-04-24 01:53 44.42269 -93.32584 9128 ft 292 kts 25°
2026-04-24 01:53 44.44055 -93.31281 9122 ft 288 kts 24°
2026-04-24 01:54 44.45833 -93.29992 9116 ft 288 kts 24°
2026-04-24 01:54 44.47558 -93.28554 9098 ft 293 kts 38°
2026-04-24 01:54 44.48843 -93.26316 8865 ft 297 kts 53°
2026-04-24 01:54 44.49975 -93.23917 8606 ft 293 kts 54°
2026-04-24 01:55 44.51070 -93.21568 8338 ft 282 kts 54°
2026-04-24 01:55 44.52124 -93.19314 8076 ft 272 kts 53°
2026-04-24 01:55 44.53148 -93.17143 7812 ft 263 kts 53°
2026-04-24 01:55 44.54145 -93.15040 7570 ft 254 kts 53°
2026-04-24 01:56 44.55102 -93.13025 7358 ft 245 kts 53°
2026-04-24 01:56 44.56027 -93.11083 7163 ft 240 kts 52°
2026-04-24 01:56 44.56976 -93.09098 7129 ft 244 kts 53°
2026-04-24 01:56 44.57916 -93.07129 7114 ft 249 kts 53°
2026-04-24 01:57 44.58880 -93.05105 7061 ft 248 kts 53°
2026-04-24 01:57 44.59819 -93.03131 7055 ft 238 kts 53°
2026-04-24 01:57 44.60760 -93.01276 7051 ft 229 kts 43°
2026-04-24 01:57 44.61993 -92.99913 7078 ft 226 kts 29°
2026-04-24 01:58 44.63452 -92.99233 7075 ft 221 kts 360°
2026-04-24 01:58 44.64988 -92.99268 6914 ft 222 kts 353°
2026-04-24 01:58 44.66501 -92.99406 6669 ft 215 kts 353°
2026-04-24 01:58 44.67987 -92.99553 6433 ft 213 kts 353°
2026-04-24 01:59 44.69463 -92.99692 6170 ft 211 kts 353°
2026-04-24 01:59 44.70932 -92.99822 5934 ft 211 kts 354°
2026-04-24 01:59 44.72394 -92.99946 5678 ft 210 kts 353°
2026-04-24 01:59 44.73861 -93.00067 5427 ft 212 kts 353°
2026-04-24 02:00 44.75342 -93.00189 5174 ft 214 kts 353°
2026-04-24 02:00 44.76835 -93.00309 4932 ft 214 kts 353°
2026-04-24 02:00 44.78252 -93.00525 4639 ft 193 kts 338°
2026-04-24 02:00 44.79197 -93.01600 4382 ft 165 kts 301°
2026-04-24 02:01 44.79842 -93.02865 4110 ft 154 kts 298°
2026-04-24 02:01 44.80411 -93.04086 3806 ft 147 kts 296°
2026-04-24 02:01 44.80948 -93.05303 3422 ft 145 kts 294°
2026-04-24 02:01 44.81469 -93.06507 3107 ft 144 kts 293°
2026-04-24 02:02 44.81981 -93.07687 2815 ft 138 kts 291°
2026-04-24 02:02 44.82462 -93.08801 2662 ft 134 kts 291°
2026-04-24 02:02 44.82958 -93.09953 2453 ft 139 kts 292°
2026-04-24 02:02 44.83467 -93.11135 2273 ft 143 kts 292°
2026-04-24 02:03 44.84503 -93.13528 1856 ft 145 kts 289°
2026-04-24 02:03 44.84996 -93.14763 1697 ft 148 kts 297°
2026-04-24 02:03 44.85565 -93.15984 1496 ft 146 kts 298°
2026-04-24 02:04 44.86080 -93.17182 1338 ft 140 kts 296°
2026-04-24 02:04 44.86579 -93.18355 1132 ft 137 kts 297°
2026-04-24 02:04 44.87077 -93.19499 947 ft 139 kts 293°
2026-04-24 02:04 44.87553 -93.20586 828 ft 121 kts 297°
2026-04-24 02:05 44.87912 -93.21417 830 ft 70 kts 302°
2026-04-24 02:05 44.88086 -93.21806 831 ft 39 kts 303°
2026-04-24 02:05 44.88210 -93.21988 831 ft 22 kts 346°
2026-04-24 02:05 44.88258 -93.21978 839 ft 0 kts 26°
2026-04-24 02:06 44.88311 -93.21931 838 ft 12 kts 36°
2026-04-24 02:06 44.88375 -93.21853 834 ft 16 kts 44°
2026-04-24 02:07 44.88480 -93.21706 838 ft 24 kts 45°
2026-04-24 02:07 44.88594 -93.21547 841 ft 23 kts 46°
2026-04-24 02:07 44.88704 -93.21392 840 ft 22 kts 43°
2026-04-24 02:07 44.88714 -93.21197 838 ft 21 kts 110°
2026-04-24 02:08 44.88627 -93.21090 833 ft 12 kts 166°
2026-04-24 02:08 44.88598 -93.21075 834 ft 0 kts 158°